Address 0x0425d75e3a34df72d940eee28d8eb7f4b5561598

Overview

Balance:
0.00032149748 MATIC
My Name Tag:
Not Available

Txn Hash Method
Block
From
To
Value [Txn Fee]
0x0ba745846812478207c2cad53f42544858e5526b258a903cd6059abdf751f85fTransfer263427722022-05-17 2:20:40199 days 17 hrs ago0x0425d75e3a34df72d940eee28d8eb7f4b5561598OUT0x87f70751d283d4d4b7cc16586e2e3afcf528ca7b4.449322 MATIC0.000178500638.50003
0x994af6dee2a7258dff66d518a46ca6729962d35f26e69b411f4e3f924491b70fTransfer262806142022-05-11 1:48:32205 days 17 hrs ago0x0425d75e3a34df72d940eee28d8eb7f4b5561598OUT0x87f70751d283d4d4b7cc16586e2e3afcf528ca7b9.999821 MATIC0.000178500428.50002
0x44639b8e20ffaa9faff732b804a4e83fc4982b964b458092092b2c23c6077134Transfer262320212022-05-06 20:14:29209 days 23 hrs ago0x0425d75e3a34df72d940eee28d8eb7f4b5561598OUT0x87f70751d283d4d4b7cc16586e2e3afcf528ca7b9.95 MATIC0.000178501478.50007
[ Download CSV Export 
Latest 25 internal transaction
Parent Txn Hash Block From To Value
0x7048bf769456fc101eebf086f8516608f1478fd31ed354c1f294a3028de75a14263039412022-05-13 7:16:43203 days 12 hrs ago 0x7f092e65c688a509737fcd8d0998dd12208f52970x0425d75e3a34df72d940eee28d8eb7f4b55615980.2 MATIC
0x576cb0596ddc4f741093f2c9f801d170b61bf809880bba1272adc9569d790f18262921522022-05-12 4:36:02204 days 14 hrs ago 0x7f092e65c688a509737fcd8d0998dd12208f52970x0425d75e3a34df72d940eee28d8eb7f4b55615980.2 MATIC
0x16b9e19751ad2c1ef8fb725a255216b63938b0f6220d114e21f8a3c45b03f18e262912482022-05-12 2:21:43204 days 17 hrs ago 0x7f092e65c688a509737fcd8d0998dd12208f52970x0425d75e3a34df72d940eee28d8eb7f4b55615980.2 MATIC
0x76957f204187145278b0fe88e8ca95e9e0d25402563ffb70cd5ca4c14d44a20f262900152022-05-11 23:38:34204 days 19 hrs ago 0x7f092e65c688a509737fcd8d0998dd12208f52970x0425d75e3a34df72d940eee28d8eb7f4b55615980.2 MATIC
0xc01d56b56a04dd996a32b826f7d89d37b600803bc7c2e6e4aaf3dd2b4ad19377262896532022-05-11 22:54:08204 days 20 hrs ago 0x7f092e65c688a509737fcd8d0998dd12208f52970x0425d75e3a34df72d940eee28d8eb7f4b55615980.2 MATIC
0x59206eade34b091f8edada740d5c60f583d017b87a2c4fe7d2f36e0ba5e00266262892962022-05-11 22:05:13204 days 21 hrs ago 0x7f092e65c688a509737fcd8d0998dd12208f52970x0425d75e3a34df72d940eee28d8eb7f4b55615980.2 MATIC
0x0c1ccfb81a3a3cd93707a90feb63976d0919af62dac5cfa26245d448553473fe262889042022-05-11 21:15:47204 days 22 hrs ago 0x7f092e65c688a509737fcd8d0998dd12208f52970x0425d75e3a34df72d940eee28d8eb7f4b55615980.2 MATIC
0x0bb39736386ee6d32e647ddcc803c1324a3ef98d20f04399265bb8d67362a3af262883952022-05-11 20:12:09204 days 23 hrs ago 0x7f092e65c688a509737fcd8d0998dd12208f52970x0425d75e3a34df72d940eee28d8eb7f4b55615980.2 MATIC
0x369a32ad13e15a91940a93f419fe16562f2653513d5e14f5409fcff8ce79244d262879032022-05-11 19:06:01205 days 20 mins ago 0x7f092e65c688a509737fcd8d0998dd12208f52970x0425d75e3a34df72d940eee28d8eb7f4b55615980.2 MATIC
0x4245940956a12345179141b58ebc0742808813463b489bb8cd9065e493c2e26b262873062022-05-11 17:47:42205 days 1 hr ago 0x7f092e65c688a509737fcd8d0998dd12208f52970x0425d75e3a34df72d940eee28d8eb7f4b55615980.2 MATIC
0x2eee94b6d364feb8aebe279833bd99e63736207dd83036ddfb62b69542d72f20262866792022-05-11 16:29:42205 days 2 hrs ago 0x7f092e65c688a509737fcd8d0998dd12208f52970x0425d75e3a34df72d940eee28d8eb7f4b55615980.2 MATIC
0x719b2000afb32902aa8c06629ccc9b81d37680797d7ceb2ae364372e777ed720262860012022-05-11 15:03:11205 days 4 hrs ago 0x7f092e65c688a509737fcd8d0998dd12208f52970x0425d75e3a34df72d940eee28d8eb7f4b55615980.2 MATIC
0xd8ec86cbff04c0e9d07c6896c5a5deff2f361cb583af7ddd14be5c2de1d8764f262852282022-05-11 13:20:49205 days 6 hrs ago 0x7f092e65c688a509737fcd8d0998dd12208f52970x0425d75e3a34df72d940eee28d8eb7f4b55615980.2 MATIC
0xb74de6ff6b929bf0831acdf7f6e391f17f67e92d2c73a605c9efab27a91078eb262845882022-05-11 11:55:19205 days 7 hrs ago 0x7f092e65c688a509737fcd8d0998dd12208f52970x0425d75e3a34df72d940eee28d8eb7f4b55615980.2 MATIC
0x7d79e62ede4e30edd1aab97a8ab8bf1044ec554f5cabcfb7063aea77efaaab69262837672022-05-11 9:48:16205 days 9 hrs ago 0x7f092e65c688a509737fcd8d0998dd12208f52970x0425d75e3a34df72d940eee28d8eb7f4b55615980.2 MATIC
0x2b85ca2db4d89e02f16b4e642e69610e3c411afc91f58c5b5a47ad1756e99a97262833922022-05-11 8:46:26205 days 10 hrs ago 0x7f092e65c688a509737fcd8d0998dd12208f52970x0425d75e3a34df72d940eee28d8eb7f4b55615980.2 MATIC
0x32da0d7095b124727e3d7a7f3ef09e63be0d74101df567d42e604263d2fb40a6262830522022-05-11 7:58:40205 days 11 hrs ago 0x7f092e65c688a509737fcd8d0998dd12208f52970x0425d75e3a34df72d940eee28d8eb7f4b55615980.2 MATIC
0x3fba6ab09486759125ce4d1584f17c6520026ce708aa3f2db82e62d6e5806cb7262827072022-05-11 7:04:20205 days 12 hrs ago 0x7f092e65c688a509737fcd8d0998dd12208f52970x0425d75e3a34df72d940eee28d8eb7f4b55615980.2 MATIC
0xde94e49c3a8b4c767286a964175ae129eca71c8d1202e1634b09d40ffa833d84262823302022-05-11 6:07:19205 days 13 hrs ago 0x7f092e65c688a509737fcd8d0998dd12208f52970x0425d75e3a34df72d940eee28d8eb7f4b55615980.2 MATIC
0x55bd2c40e563787d6dbe3e5a6c8f50ff0dfb075f473219c2410ecf8e093e185c262819342022-05-11 5:04:18205 days 14 hrs ago 0x7f092e65c688a509737fcd8d0998dd12208f52970x0425d75e3a34df72d940eee28d8eb7f4b55615980.2 MATIC
0xc428f1db33a14bc6b7f564722bf0c8ea86b3eb4c31998a915fa4df1e0e510ec0262815392022-05-11 4:08:42205 days 15 hrs ago 0x7f092e65c688a509737fcd8d0998dd12208f52970x0425d75e3a34df72d940eee28d8eb7f4b55615980.2 MATIC
0x7ea99da88e40887dae21dab115817650719ad239adeba47eb9d3610b468f9ea5262810492022-05-11 2:57:54205 days 16 hrs ago 0x7f092e65c688a509737fcd8d0998dd12208f52970x0425d75e3a34df72d940eee28d8eb7f4b55615980.2 MATIC
0xd20e952449f766ddd2845db15c23f24ddfee92448374c72f795f383ae00dc0df262802682022-05-11 0:58:12205 days 18 hrs ago 0x7f092e65c688a509737fcd8d0998dd12208f52970x0425d75e3a34df72d940eee28d8eb7f4b55615980.2 MATIC
0x579bbefdc4c16d936c3da68dce9d6b5656100072e336db30852aa98e80f70801262799332022-05-11 0:07:26205 days 19 hrs ago 0x7f092e65c688a509737fcd8d0998dd12208f52970x0425d75e3a34df72d940eee28d8eb7f4b55615980.2 MATIC
0x0747fe3e09b139a93b47a11b28a5caa67cd408524f6a2e5b256f3e0d1ed143ed262796672022-05-10 23:28:32205 days 19 hrs ago 0x7f092e65c688a509737fcd8d0998dd12208f52970x0425d75e3a34df72d940eee28d8eb7f4b55615980.2 MATIC
[ Download CSV Export 
Loading

Contract Name:
0 MATIC

Compiler Version
0

Optimization Enabled:
0 MATIC

Other Settings:
-NA-
Block Transaction Gas Used Reward
Age Block Fee Address BC Fee Address Voting Power Jailed Incoming
Block Uncle Number Difficulty Gas Used Reward
Loading